Lapse_Rate
5.0 4.8 4.2 4.0 4.0 3.6 3.5 3.5 4.2 4.9 3.6 4.3 2.1 3.1 2.8 3.2 3.9 0.7 1.0 1.5 3.3 4.5 4.4 4.6 5.3 5.4 5.6 5.1 5.0 5.2 5.6 5.6 6.0 6.4 3.4 2.9 3.4 2.8 2.0 1.1 1.4 1.1 -0.5
6.5 4.9 4.6 3.8 4.0 3.2 3.1 3.3 3.9 4.1 4.5 4.6 5.0 5.0 3.3 2.6 3.1 4.7 1.8 1.1 1.4 1.7 1.9 2.8 5.4 5.9 5.4 5.6 5.3 4.8 5.0 5.4 6.1 6.7 6.8 4.4 4.1 3.2 2.9 1.0 -0.3 -0.4 -0.9
6.9 6.4 5.3 5.5 4.6 3.1 2.8 3.2 2.6 2.9 3.0 3.9 4.0 3.9 3.9 5.4 3.3 2.3 3.7 3.9 1.5 2.4 2.6 4.5 2.2 2.4 3.1 3.8 4.8 5.4 5.8 5.9 5.9 6.2 6.0 3.7 3.1 1.4 0.3 -1.2 -1.6 -2.0 -2.5
5.9 5.8 5.8 5.5 5.3 5.4 4.8 3.1 2.4 2.4 2.5 2.5 3.1 4.0 4.3 5.0 4.7 4.0 3.9 3.7 3.5 2.0 3.4 2.3 5.8 3.6 3.9 4.0 3.9 2.7 3.0 3.8 4.7 4.6 4.8 3.7 2.9 0.9 0.3 -0.0 -1.7 -2.1 -2.7
6.3 5.7 5.8 5.9 6.1 5.5 5.0 5.2 4.6 3.5 3.0 3.2 2.8 3.3 3.6 4.3 4.0 2.6 2.6 2.9 3.1 3.4 4.0 4.2 4.5 5.0 2.5 -0.1 3.9 3.6 2.4 2.2 3.1 4.0 4.1 2.6 1.7 -0.5 1.3 0.5 1.2 -1.5 -2.6
6.2 6.2 6.1 5.8 6.5 6.4 6.3 5.7 5.2 4.3 4.0 3.7 3.5 3.3 3.8 4.7 1.7 1.2 1.6 2.4 2.8 3.4 3.5 4.2 4.7 4.2 4.3 2.4 1.8 2.1 1.0 1.7 4.3 4.8 4.0 3.9 3.0 2.8 1.4 1.0 -1.0 -2.9 -0.8
6.5 6.4 5.9 6.1 5.7 5.3 5.9 5.5 4.8 3.7 3.9 3.8 3.7 4.3 3.8 3.8 2.2 1.1 -0.2 2.0 2.6 3.2 3.9 4.0 4.2 5.4 4.4 5.6 4.9 2.2 1.2 1.3 1.3 3.5 4.3 3.9 3.4 3.5 2.8 1.5 0.7 0.7 -0.7
6.5 6.2 5.9 5.7 6.0 4.3 5.3 4.0 2.9 4.4 4.8 3.9 3.8 3.3 3.9 4.0 2.6 2.5 1.3 3.2 3.6 4.0 4.2 4.6 5.3 3.9 4.2 1.9 3.4 4.6 4.3 3.5 2.0 1.6 1.6 1.7 1.6 1.3 1.7 2.1 2.1 -0.4 -3.0
5.9 6.4 7.1 6.9 6.8 6.2 4.1 2.7 2.6 3.4 2.8 3.0 3.6 3.4 3.4 3.0 2.2 2.1 2.5 3.0 3.1 3.1 4.8 4.2 3.6 3.1 -0.3 -0.1 2.1 2.2 1.7 0.1 0.5 -0.6 -1.4 -1.8 -2.6 -3.3 -2.9 -1.9 -2.8 -2.5 -3.1
6.1 6.0 6.4 7.1 7.7 7.1 6.3 5.1 4.7 5.2 5.2 5.7 5.3 4.8 4.3 4.0 3.7 3.6 4.4 4.6 3.5 3.2 3.0 3.7 2.5 2.1 0.1 1.2 1.9 1.1 0.4 -1.4 -1.5 -1.4 -2.0 -2.4 -2.8 -2.2 -3.2 -0.9 -0.7 -0.9 -1.9
8.3 7.9 7.6 7.7 7.3 7.1 5.7 5.7 5.4 5.0 5.9 6.6 6.6 6.1 6.2 5.9 5.0 4.4 4.4 5.8 6.5 4.8 4.8 2.8 3.1 3.0 2.9 2.2 2.4 2.1 1.6 -0.1 -1.6 -2.0 -1.9 -2.5 -3.2 -3.7 -3.6 -3.5 -1.9 -0.2 -0.8
8.7 8.7 8.4 7.6 7.7 6.9 5.3 4.2 4.6 6.8 6.8 6.7 6.5 6.3 6.3 7.1 6.6 5.7 6.1 6.5 7.1 7.5 6.9 6.0 5.7 3.3 1.9 1.7 0.7 1.0 0.1 0.1 -0.1 -0.9 -0.9 -1.4 -1.9 -2.8 -3.9 -3.6 -2.7 -2.6 -2.4
8.0 8.1 8.3 7.8 6.8 6.0 6.9 7.0 6.9 6.7 6.6 6.8 6.5 6.5 6.7 6.6 6.7 5.3 5.5 5.6 6.1 5.9 5.6 5.5 5.4 5.1 4.2 1.5 1.7 1.6 0.4 0.8 1.0 0.7 0.1 -0.4 -1.7 -2.3 -3.1 -3.4 -3.0 -2.0 -1.9
8.2 8.5 8.4 7.8 7.5 7.8 7.6 6.7 6.8 6.8 6.9 6.9 6.9 7.0 7.0 6.8 6.7 5.5 4.7 4.3 4.5 5.0 4.7 4.7 4.5 4.2 2.9 2.3 1.7 1.3 1.9 2.0 2.6 3.7 2.0 -0.2 -1.3 -2.3 -2.5 -1.9 -0.7 -0.4 -0.4
8.3 8.3 7.9 7.5 7.4 6.8 6.8 6.6 7.0 7.3 7.0 7.0 7.0 7.2 7.0 7.1 6.8 6.8 6.6 6.3 6.2 6.1 6.1 6.0 6.0 6.2 6.5 6.4 5.6 5.1 4.1 4.8 4.8 3.6 2.6 1.2 0.4 -0.1 -0.7 -0.5 0.7 0.4 1.0
8.0 7.8 6.9 6.9 6.9 6.8 6.8 6.8 7.0 6.8 6.9 7.1 7.0 7.0 7.3 7.2 6.6 6.7 6.9 6.8 6.3 5.9 5.8 5.8 5.8 6.0 6.4 6.7 6.7 6.4 6.0 5.6 6.1 4.1 3.5 2.3 1.9 1.8 1.4 1.0 1.3 1.8 1.7
7.7 8.1 7.1 6.8 7.0 7.1 7.0 7.1 6.9 7.1 7.1 7.1 7.1 7.1 6.8 6.4 6.5 6.6 6.7 6.8 6.7 6.3 6.6 6.7 6.5 6.5 6.5 6.4 6.6 6.4 6.3 6.1 5.8 5.1 4.2 3.1 2.1 2.1 1.7 1.8 1.7 1.7 1.9
7.6 6.9 7.0 7.3 7.2 7.1 7.2 7.2 7.1 7.0 6.9 7.0 7.4 6.6 6.2 6.3 6.5 6.7 6.7 6.8 6.5 6.4 6.5 6.5 6.4 6.5 6.2 6.0 6.0 6.2 6.2 6.3 6.0 5.6 4.2 3.4 2.7 2.2 2.1 2.3 2.2 1.9 2.9
7.2 7.0 7.1 7.4 7.2 6.9 7.2 7.2 7.0 7.3 7.1 7.2 7.3 6.4 6.0 6.5 6.4 6.2 6.5 6.4 6.9 7.0 7.0 6.7 6.6 6.4 6.2 6.0 5.6 5.6 5.9 6.2 5.9 5.0 3.9 3.3 2.9 2.6 2.6 2.7 2.8 3.0 3.7
6.4 6.2 6.7 7.4 7.1 6.8 7.0 7.4 7.1 7.1 7.1 7.1 7.1 7.1 6.8 6.9 6.9 6.9 6.8 7.1 7.0 7.1 7.0 6.8 6.5 6.6 6.2 5.9 5.7 5.5 5.5 5.6 5.4 4.7 3.8 3.2 2.8 2.9 2.5 2.4 3.3 4.0 4.8
6.6 6.7 7.1 6.8 6.7 7.0 7.0 7.2 7.1 6.9 7.0 7.0 6.8 6.7 6.3 6.8 6.8 7.1 7.0 6.8 6.8 6.6 6.8 6.6 6.5 6.1 5.9 5.7 5.5 5.7 5.7 5.7 5.1 4.1 3.5 3.1 2.8 2.9 2.9 3.4 4.3 4.6 4.3
6.4 6.2 6.7 6.7 6.7 6.8 7.2 7.5 7.0 7.0 7.1 7.0 6.9 6.7 6.8 6.8 6.8 6.8 6.8 6.6 6.5 6.4 6.3 5.8 5.7 5.6 5.3 5.3 5.6 5.8 5.7 5.2 4.1 3.6 3.3 3.0 3.2 3.2 3.7 4.7 4.5 4.3 4.5
6.2 5.9 6.4 6.6 6.8 6.8 7.1 7.2 7.1 7.1 7.0 7.0 6.8 6.8 6.8 6.9 6.9 6.7 6.4 6.3 6.3 5.8 5.2 5.0 4.8 4.6 4.7 4.9 5.4 5.2 5.4 4.4 3.7 3.3 3.2 3.2 3.4 3.9 4.8 4.7 4.6 5.0 5.2
6.1 5.7 6.5 6.5 6.6 6.8 7.0 7.2 7.2 7.1 6.9 6.8 6.9 6.9 6.8 6.7 6.5 6.1 6.0 6.1 5.5 5.3 4.9 4.6 4.2 3.9 4.4 4.4 4.6 4.8 4.2 3.0 2.6 2.8 2.9 3.1 3.8 4.7 4.7 5.2 5.5 4.9 4.7
5.9 6.5 6.5 6.7 6.7 6.7 6.9 7.2 6.8 6.7 6.6 6.8 6.7 6.5 6.4 6.4 6.2 6.3 6.3 5.7 5.4 5.2 4.6 4.2 3.8 3.5 3.6 4.1 3.7 3.2 2.5 2.4 2.6 2.7 3.0 3.3 3.9 4.5 4.8 5.2 5.0 4.9 4.4
7.0 6.7 6.3 6.7 6.5 6.6 7.1 7.2 6.8 6.6 6.6 6.4 6.2 6.2 6.1 6.1 6.2 6.3 5.7 5.6 5.3 4.8 4.2 3.7 3.3 3.0 2.8 2.7 2.7 2.5 2.4 2.5 2.7 3.0 3.4 3.7 4.2 4.6 5.0 4.5 4.8 4.7 4.6
Wind_Speed
10 10 11 10 10 11 11 12 11 8 12 13 11 11 13 13 18 13 10 10 7 6 7 9 13 13 11 9 10 11 11 10 13 13 4 4 4 5 4 6 9 7 4
8 8 10 10 11 12 11 12 9 12 7 8 8 7 11 9 1 14 13 13 12 13 12 11 9 8 13 13 10 12 12 12 11 17 11 5 5 4 3 3 4 6 6
6 6 7 10 11 10 11 7 12 12 12 12 12 13 13 10 7 5 10 10 11 13 13 12 8 9 7 4 6 10 11 10 10 12 9 4 4 3 1 2 3 3 6
6 6 6 7 9 9 9 8 10 10 10 11 11 10 9 8 7 9 10 11 11 7 8 13 12 6 7 12 6 5 6 6 7 8 6 5 4 2 1 2 2 2 0
7 6 6 6 6 6 8 9 9 11 9 8 9 11 10 9 6 10 9 9 9 8 10 7 6 10 8 3 5 10 8 6 5 5 3 1 2 2 4 3 3 3 2
8 9 11 12 12 12 11 8 11 12 11 12 12 10 10 8 10 12 12 10 9 7 8 9 10 12 9 6 5 11 5 5 7 4 4 1 3 5 2 2 2 3 4
9 9 10 11 11 10 10 11 12 11 11 11 10 10 12 12 16 18 17 10 9 10 10 10 10 9 10 5 3 9 7 14 11 1 3 1 4 2 3 3 3 4 3
9 10 10 10 9 7 8 8 8 9 11 11 12 12 12 9 15 14 14 10 10 10 9 9 8 9 11 9 6 2 5 5 4 3 6 5 2 2 3 4 3 2 3
10 10 8 7 9 7 5 4 4 7 7 10 10 12 12 13 15 15 13 9 9 8 7 9 8 8 9 15 10 6 6 5 3 5 4 5 6 5 5 3 3 3 2
10 11 12 11 10 8 6 6 3 5 8 10 12 10 13 13 12 14 13 8 10 8 8 9 11 8 8 10 8 7 7 3 5 8 5 3 3 4 4 9 3 4 2
9 9 11 10 12 7 7 7 9 10 12 11 10 9 11 10 12 15 16 10 9 9 7 5 5 10 13 8 6 5 6 5 4 3 4 3 3 1 2 1 4 2 3
10 13 9 9 8 8 9 8 9 10 11 12 11 9 6 7 9 12 16 14 13 9 8 4 6 12 16 15 10 9 9 7 5 4 3 4 3 1 1 2 3 1 2
7 9 10 10 5 6 10 10 9 9 9 9 9 9 10 8 8 14 16 16 14 8 8 13 18 16 15 10 12 16 11 6 5 3 5 4 1 2 3 2 1 4 6
8 13 12 10 10 11 9 6 7 8 9 9 9 9 9 8 8 8 7 7 10 9 10 9 9 11 11 12 10 8 6 6 7 7 6 3 2 2 3 2 2 1 2
8 13 12 8 9 10 7 6 8 8 9 10 10 10 10 10 10 14 15 11 10 12 13 9 7 7 8 8 8 7 6 6 7 5 3 3 4 4 2 2 2 2 2
8 8 6 6 8 7 8 10 9 13 16 19 20 15 10 17 21 21 21 22 21 18 10 8 8 8 8 8 7 7 6 7 7 5 4 5 4 4 3 2 2 2 4
6 10 7 8 7 8 8 9 11 11 15 17 18 19 21 20 23 24 22 20 19 14 9 10 9 8 8 8 8 8 8 6 6 6 6 5 5 4 5 4 4 6 5
6 6 6 7 8 8 8 9 8 10 11 11 13 15 18 21 22 21 21 19 10 8 8 8 9 8 8 9 8 8 7 6 6 6 6 6 6 6 6 5 5 6 7
8 5 6 7 8 8 8 8 8 10 10 10 11 12 12 18 18 19 18 8 10 10 9 8 8 8 8 8 8 7 7 6 5 5 6 6 6 6 6 6 5 8 10
6 8 8 8 8 8 7 9 9 9 11 10 10 12 11 11 10 10 9 9 9 9 9 9 8 8 8 8 8 7 6 6 6 6 6 6 6 7 7 8 8 9 8
6 6 10 7 7 8 8 9 10 9 10 11 11 10 14 11 11 10 10 10 9 10 10 9 9 8 8 7 8 6 6 6 6 6 6 7 7 7 7 7 8 7 9
7 6 8 7 8 8 9 9 9 9 11 11 11 11 15 9 9 10 10 9 10 10 9 9 10 8 8 7 6 6 6 6 6 7 7 7 8 8 8 8 9 9 10
7 9 8 8 8 10 9 9 9 10 11 11 11 10 9 9 9 10 10 10 9 10 9 9 9 8 7 6 6 6 6 6 7 8 9 9 9 9 8 10 10 11 10
8 9 9 8 7 9 9 9 9 12 11 10 10 10 10 10 10 11 10 9 9 9 9 8 8 9 7 6 5 5 4 5 6 8 12 10 9 10 10 10 10 13 12
7 9 8 8 8 9 9 10 10 10 10 10 10 10 10 10 10 10 9 9 9 9 9 8 6 6 7 6 4 5 8 12 10 12 8 12 13 15 12 10 13 12 14
7 9 8 8 8 7 8 10 10 10 10 10 10 10 10 10 9 9 9 9 9 8 9 6 6 5 1 2 4 8 11 14 12 18 13 12 12 11 11 14 17 11 13
Wind_Direction
7 10 14 13 17 21 12 13 16 10 8 348 24 358 22 24 349 358 26 9 324 246 219 206 226 227 234 231 230 235 244 245 254 263 222 221 224 216 204 168 170 170 173
1 8 13 10 9 24 14 6 353 13 354 17 9 351 25 47 165 345 10 2 359 7 2 356 274 244 231 230 224 226 233 232 240 253 248 215 202 217 246 170 135 125 135
343 15 24 16 11 14 6 352 20 6 2 356 351 360 6 7 39 7 333 328 20 17 356 327 335 337 332 312 265 241 239 241 238 247 248 218 223 231 110 67 103 83 90
333 7 18 12 10 1 355 359 8 10 357 348 355 348 343 344 19 10 345 354 6 19 293 346 307 331 357 337 314 335 356 338 259 232 239 239 227 208 200 157 160 72 218
348 29 358 1 356 342 342 348 357 357 1 355 348 348 342 344 357 2 8 354 345 345 341 306 311 310 290 245 345 322 341 2 321 315 267 234 248 253 201 187 214 141 182
22 13 14 13 5 356 348 349 354 350 351 351 356 350 339 343 353 357 350 333 334 333 318 321 320 311 1 322 6 274 263 347 300 324 238 288 72 280 276 154 205 133 220
25 15 11 2 351 351 359 358 350 346 344 342 350 346 347 341 346 344 358 345 330 336 330 323 320 334 336 292 312 291 303 254 243 300 259 176 85 305 343 273 248 263 146
19 4 357 349 341 333 352 354 350 349 343 349 338 344 331 332 333 340 346 343 331 321 317 316 324 339 336 335 323 293 305 353 17 288 356 4 333 255 255 277 275 151 32
5 355 341 336 329 330 337 317 330 338 337 331 332 335 330 325 336 336 340 338 327 317 325 337 353 6 2 17 8 355 328 349 306 27 17 315 315 292 252 137 208 152 175
356 344 333 328 321 322 319 337 321 326 328 330 326 321 318 316 317 316 325 324 316 316 321 318 324 313 340 343 338 341 317 282 318 329 327 315 332 313 329 231 193 193 139
338 328 321 331 335 344 359 344 330 329 330 325 317 316 315 314 318 319 321 327 313 312 298 297 292 290 293 296 302 282 257 252 272 287 296 308 281 333 311 342 274 243 181
328 330 329 339 332 352 339 335 330 326 325 320 317 314 306 302 301 306 303 298 300 304 295 291 295 307 309 308 311 281 279 279 272 259 254 228 229 194 146 259 278 323 32
324 328 329 327 333 337 331 328 323 322 320 313 312 312 314 314 304 292 292 294 296 298 293 293 295 298 297 301 289 285 285 291 269 245 254 246 195 172 175 168 104 83 73
328 333 329 332 326 328 322 306 309 314 311 305 306 304 301 300 298 298 295 298 293 290 290 291 284 283 286 281 283 274 262 253 247 249 245 192 149 180 181 193 146 114 67
328 329 327 321 323 320 307 300 308 296 291 302 302 299 302 301 291 285 288 291 290 285 285 281 273 267 278 287 292 282 264 257 250 227 190 180 183 189 176 156 108 111 111
323 327 317 318 316 316 313 314 289 282 289 291 291 287 289 286 291 290 290 289 289 288 287 282 277 274 272 273 271 276 268 260 260 228 205 183 187 193 164 144 120 120 129
329 329 318 313 315 316 313 311 315 311 291 286 285 284 286 289 296 299 300 296 290 286 280 284 278 272 269 265 264 253 255 253 243 225 209 188 175 164 148 157 144 132 131
319 307 308 313 311 307 305 301 303 306 308 309 301 294 300 296 294 293 297 304 298 280 266 270 269 264 262 262 259 252 251 251 236 220 206 180 173 160 157 161 162 148 144
313 305 310 311 299 291 296 297 293 303 301 300 306 305 303 299 298 296 296 294 296 299 289 275 272 266 259 256 254 252 241 243 230 204 191 172 163 159 156 148 151 147 142
297 286 291 307 300 301 296 308 301 304 306 303 305 308 307 309 313 312 306 299 297 297 293 285 275 273 257 250 250 249 247 240 225 201 179 162 157 159 154 147 154 149 144
292 287 290 297 299 304 299 307 305 302 303 303 302 299 295 303 306 303 303 301 297 296 292 288 287 277 266 249 243 238 241 238 207 182 161 156 152 149 147 148 144 127 125
300 293 303 302 302 302 301 307 305 301 302 303 305 303 303 299 298 297 295 293 292 291 290 286 291 277 266 253 235 237 234 222 178 163 155 149 150 144 146 143 131 131 131
312 301 298 302 304 303 304 306 304 304 305 303 303 305 308 307 304 302 299 297 292 294 289 286 283 278 262 241 239 239 245 188 173 158 150 147 147 144 138 137 137 135 135
307 298 298 302 307 308 306 308 308 307 305 306 308 308 309 308 305 302 300 302 298 295 291 287 283 274 264 246 238 242 183 153 152 153 145 142 139 135 134 137 135 133 130
312 307 304 307 305 308 308 312 309 309 308 310 311 311 309 307 306 307 309 309 308 307 304 299 292 283 275 246 204 157 141 139 135 134 129 128 131 132 136 128 130 130 128
306 309 305 304 304 306 312 315 311 310 311 314 313 312 310 311 311 316 316 315 317 318 318 323 327 331 349 119 128 129 129 125 124 127 126 125 127 128 127 125 128 127 130